Location: Condor
(52.3263°N, 114.5541°W)
Time: 21:29:27
(UTC+00:00)

Oscar 19 - Pass Details

Date: 10 December 2023
Orbit: 771 x 789 km, 98.9° (Epoch: 04 March)

Event Time Altitude Azimuth Distance (km) Brightness Sun altitude
Rises 10:57:21 0° 29° (NNE) 3,279 14.4 -41.1°
Reaches altitude 10° 11:00:47 10° 53° (NE) 2,348 13.7 -40.6°
Maximum altitude 11:03:38 15° 86° (E) 2,036 13.4 -40.2°
Drops below altitude 10° 11:06:27 10° 120° (ESE) 2,345 13.5 -39.8°
Sets 11:09:52 0° 144° (SE) 3,270 14.1 -39.3°
